Location: Home
(42.5358°N, 72.7383°W)
Time: 19:33:51
(UTC-04:00)

First-Move - Pass Details

Date: 21 August 2022
Orbit: 569 x 659 km, 97.6° (Epoch: 27 September)

Event Time Altitude Azimuth Distance (km) Brightness Sun altitude
Rises 04:12:09 0° 22° (NNE) 2,859 ? -19.1°
Reaches altitude 10° 04:14:34 10° 33° (NNE) 1,936 ? -18.7°
Maximum altitude 04:18:18 31° 96° (E) 1,040 ? -18.2°
Drops below altitude 10° 04:21:56 10° 159° (SSE) 1,884 ? -17.6°
Enters shadow 04:23:01 - 165° (SSE) 2,292 ? -17.5°
